Viciebsk, Belarus

7:39 PM MSK on February 13, 2016 (GMT +0300)
Vitebsk

Weather History for UMII - May, 2013

Change the Weather History Date:

Friday, May 24, 2013

  Actual Average Record
Temperature  
Mean Temperature 60 °F -  
Max Temperature 71 °F 69 °F - ()
Min Temperature 50 °F 50 °F - ()
Degree Days  
Heating Degree Days 4    
Growing Degree Days 10 (Base 50)    
Moisture  
Dew Point 56 °F    
Average Humidity 77    
Maximum Humidity 100    
Minimum Humidity 54    
Precipitation  
Precipitation 0.16 in 0.10 in - ()
Sea Level Pressure  
Sea Level Pressure 29.62 in    
Wind  
Wind Speed 6 mph ()    
Max Wind Speed 16 mph    
Max Gust Speed 25 mph    
Visibility 3.1 miles    
Events Fog , Rain , Thunderstorm    
T = Trace of Precipitation, MM = Missing Value Source: Averaged Metar Reports

Daily Weather History Graph

Daily Weather History Graph

Search for Another Location

Airport or City:

Trip Planner

Search our weather history database for the weather conditions in past years. The results will help you decide how hot, cold, wet, or windy it might be!

Date:

Astronomy

May. 24, 2013 Rise Set
Actual Time 4:36 AM FET 9:16 PM FET
Civil Twilight 3:44 AM FET 10:08 PM FET
Nautical Twilight 2:19 AM FET 11:35 PM FET
Astronomical Twilight Sun does not rise Sun does not rise
Moon 8:28 PM FET (5/24) 4:05 AM FET (5/24)
Length of Visible Light 18h 23m
Length of Day
16h 40m
Waxing Gibbous, 99% of the Moon is Illuminated
May 24
Waxing Gibbous
May 25
Full
May 31
Last Quarter
Jun 8
New
Jun 16
First Quarter

Hourly Weather History & Observations

Time (FET) Temp. Dew Point Humidity Pressure Visibility Wind Dir Wind Speed Gust Speed Precip Events Conditions
12:00 AM 55 °F 54 °F 93% 29.70 in 2 mi Calm Calm - -   Mist
3:00 AM 51 °F 51 °F 100% 29.70 in 0 mi Calm Calm - - Fog Heavy Fog
6:00 AM 51 °F 51 °F 98% 29.70 in 0 mi Calm Calm - - Fog Heavy Fog
8:00 AM 55.4 °F 53.6 °F 94% 29.68 in - ENE 4.5 mph - N/A   Scattered Clouds
9:00 AM 56 °F 55 °F 95% 29.68 in 1 mi NE 2.2 mph - - Fog Light Fog
9:00 AM 59.0 °F 55.4 °F 88% 29.68 in - ENE 6.7 mph - N/A   Scattered Clouds
10:00 AM 60.8 °F 57.2 °F 88% 29.65 in - East 8.9 mph - N/A   Scattered Clouds
11:00 AM 64.4 °F 55.4 °F 73% 29.68 in - East 6.7 mph 13.4 mph N/A   Scattered Clouds
12:00 PM 68 °F 58 °F 61% 29.65 in 6 mi NE 4.5 mph - -   Mostly Cloudy
12:00 PM 64.4 °F 53.6 °F 68% 29.65 in - ENE 8.9 mph 15.7 mph N/A   Scattered Clouds
1:00 PM 66.2 °F 53.6 °F 64% 29.62 in - ENE 11.2 mph 17.9 mph N/A   Scattered Clouds
2:00 PM 68.0 °F 55.4 °F 64% 29.62 in - ENE 11.2 mph 17.9 mph N/A   Mostly Cloudy
3:00 PM 71 °F 58 °F 54% 29.63 in 6 mi NE 6.7 mph - -   Mostly Cloudy
3:00 PM 69.8 °F 57.2 °F 64% 29.59 in - ENE 13.4 mph 22.4 mph N/A   Mostly Cloudy
4:00 PM 69.8 °F 57.2 °F 64% 29.59 in - ENE 13.4 mph 22.4 mph N/A   Mostly Cloudy
5:00 PM 68.0 °F 57.2 °F 68% 29.56 in - ENE 15.7 mph 24.6 mph N/A   Scattered Clouds
5:51 PM 68.0 °F 57.2 °F 68% 29.56 in - NE 13.4 mph 20.1 mph N/A Thunderstorm Thunderstorm
6:00 PM 68 °F 58 °F 64% 29.55 in 6 mi NE 6.7 mph - -   Partly Cloudy
6:00 PM 68.0 °F 57.2 °F 68% 29.53 in 1.5 mi NE 15.7 mph 22.4 mph N/A Rain , Thunderstorm Light Thunderstorms and Rain
6:23 PM 68.0 °F 57.2 °F 68% 29.53 in 3.7 mi NE 15.7 mph 22.4 mph N/A Rain , Thunderstorm Light Thunderstorms and Rain
7:00 PM 64.4 °F 59.0 °F 83% 29.53 in - ENE 11.2 mph 17.9 mph N/A   Mostly Cloudy
8:00 PM 62.6 °F 59.0 °F 88% 29.53 in 3.7 mi NE 8.9 mph 15.7 mph N/A Rain Light Rain Showers
9:00 PM 62 °F 60 °F 90% 29.54 in 4 mi ENE 4.5 mph - - Rain Light Rain Showers